This demonstration page uses our WeatherBlox Daily Observations layout. Learn more.

36.17497, -115.13722

Hourly Observations for March 31, 2018

Temp ( °F °C ) Dew Point ( °F °C ) Humidity (%) Winds ( mph kmh ) Pressure ( in mb ) Visibility ( mi km ) Precip ( " mm )
12:53 am 00:53 Clear 65 18.3 27 -2.8 24 24 NW 7 11 30.02 1017 10 16.0934 0 0
1:53 am 01:53 Clear 63 17.2 29 -1.7 28 28 Calm 30.02 1017 10 16.0934 0 0
2:53 am 02:53 Clear 62 16.7 29 -1.7 29 29 NW 5 7 30.02 1017 10 16.0934 0 0
3:53 am 03:53 Clear 60 15.6 29 -1.7 31 31 SW 5 7 30.01 1016 10 16.0934 0 0
4:53 am 04:53 Clear 59 15 29 -1.7 32 32 W 5 7 30.01 1016 10 16.0934 0 0
5:53 am 05:53 Clear 58 14.4 28 -2.2 32 32 Calm 30.02 1017 10 16.0934 0 0
6:53 am 06:53 Sunny 58 14.4 27 -2.8 31 31 NNW 5 7 30.04 1017 10 16.0934 0 0
7:53 am 07:53 Sunny 60 15.6 28 -2.2 30 30 NW 3 6 30.05 1018 10 16.0934 0 0
8:53 am 08:53 Sunny 67 19.4 28 -2.2 23 23 SSE 3 6 30.05 1018 10 16.0934 0 0
9:53 am 09:53 Sunny 70 21.1 23 -5 17 17 E 7 11 30.05 1018 10 16.0934 0 0
10:53 am 10:53 Sunny 73 22.8 23 -5 15 15 SSE 6 9 30.04 1017 10 16.0934 0 0
11:53 am 11:53 Sunny 76 24.4 23 -5 14 14 SSE 6 9 30.03 1017 10 16.0934 0 0
12:53 pm 12:53 Sunny 80 26.7 24 -4.4 13 13 ESE 8 13 29.98 1015 10 16.0934 0 0
1:53 pm 13:53 Sunny 84 28.9 24 -4.4 11 11 SE 10 17 29.94 1014 10 16.0934 0 0
2:53 pm 14:53 Sunny 85 29.4 25 -3.9 11 11 S 8 13 29.89 1012 10 16.0934 0 0
3:53 pm 15:53 Sunny 85 29.4 24 -4.4 11 11 SE 13 20 29.87 1012 10 16.0934 0 0
4:53 pm 16:53 Sunny 85 29.4 16 -8.9 7 7 W 12 19 29.86 1011 10 16.0934 0 0
5:53 pm 17:53 Sunny 84 28.9 15 -9.4 7 7 SW 13 20 29.85 1011 10 16.0934 0 0
6:53 pm 18:53 Sunny 82 27.8 17 -8.3 9 9 SW 9 15 29.85 1011 10 16.0934 0 0
7:53 pm 19:53 Clear 80 26.7 20 -6.7 10 10 SW 9 15 29.86 1011 10 16.0934 0 0
8:53 pm 20:53 Clear 80 26.7 21 -6.1 11 11 WSW 9 15 29.86 1011 10 16.0934 0 0
9:53 pm 21:53 Clear 78 25.6 23 -5 13 13 SSW 9 15 29.86 1011 10 16.0934 0 0
10:53 pm 22:53 Clear 75 23.9 27 -2.8 17 17 Calm 29.85 1011 10 16.0934 0 0
11:53 pm 23:53 Clear 74 23.3 26 -3.3 17 17 SSW 6 9 29.85 1011 10 16.0934 0 0

Powered by AerisWeather